EW8626 Weather Reports


time (UTC)temp
C
wind
direction
speed
KPH
gust
KPH
rain 1hr
cm
rain 24hr
cm
rain mn
cm
humidity
%
barometer
mb
20260509043007 12 339 0.0 0.0 0.03 0.03 0.03 93 1005.3
20260509041505 12 339 0.0 0.0 0.00 0.00 0.00 93 1005.4
20260509040004 12 337 0.0 0.0 0.00 0.00 0.00 92 1005.5
20260509034501 12 337 0.0 1.6 0.00 0.00 0.00 92 1005.7
20260509033002 12 333 0.0 0.0 0.00 0.00 0.00 91 1005.9
20260509031601 12 333 0.0 0.0 0.00 0.00 0.00 90 1005.9
20260509030100 12 333 0.0 0.0 0.00 0.00 0.00 89 1006.0
20260509024605 13 333 0.0 1.6 0.00 0.00 0.00 88 1006.2
20260509023057 13 312 0.0 4.8 0.00 0.00 0.00 86 1006.2
20260509021557 13 347 0.0 0.0 0.00 0.00 0.00 84 1006.4
20260509020057 13 314 0.0 1.6 0.00 0.00 0.00 82 1006.2
20260509014555 14 343 0.0 3.2 0.00 0.00 0.00 80 1006.2
20260509013056 15 10 0.0 1.6 0.00 0.00 0.00 76 1005.6
20260509011601 15 13 0.0 4.8 0.00 0.00 0.00 73 1005.4
20260509010054 16 15 1.6 6.4 0.00 0.00 0.00 69 1004.9
20260509004557 16 148 0.0 0.0 0.00 0.00 0.00 68 1005.1
20260509003048 17 148 0.0 0.0 0.00 0.00 0.00 60 1005.2
20260509001552 17 148 0.0 0.0 0.00 0.00 0.00 56 1005.2
20260509000048 17 148 0.0 0.0 0.00 0.00 0.00 53 1005.2
20260508234546 17 148 0.0 0.0 0.00 0.00 0.00 52 1005.3
20260508233045 18 147 0.0 0.0 0.00 0.00 0.00 52 1005.1
20260508231551 18 147 0.0 0.0 0.00 0.00 0.00 50 1005.1
20260508230043 18 148 0.0 0.0 0.00 0.00 0.00 49 1005.1
20260508224601 18 145 0.0 0.0 0.00 0.00 0.00 48 1005.0
20260508223043 18 145 0.0 0.0 0.00 0.00 0.00 47 1005.1
20260508221553 18 133 0.0 1.6 0.00 0.00 0.00 47 1005.1
20260508220041 19 154 0.0 6.4 0.00 0.00 0.00 46 1004.9
20260508214546 19 165 0.0 3.2 0.00 0.00 0.00 45 1005.0
20260508213040 19 181 0.0 9.7 0.00 0.00 0.00 45 1004.9
20260508211540 19 136 0.0 9.7 0.00 0.00 0.00 47 1005.1
20260508210038 19 174 0.0 4.8 0.00 0.00 0.00 46 1005.1
20260508204537 19 252 0.0 8.0 0.00 0.00 0.00 45 1005.5
20260508203035 19 161 1.6 14.5 0.00 0.00 0.00 43 1005.8
20260508201537 19 172 0.0 9.7 0.00 0.00 0.00 45 1006.2
20260508200041 19 155 1.6 16.1 0.00 0.00 0.00 45 1006.4
20260508194528 19 142 0.0 6.4 0.00 0.00 0.00 46 1006.4
20260508193025 18 155 3.2 12.9 0.00 0.00 0.00 45 1006.7
20260508191524 18 159 0.0 17.7 0.00 0.00 0.00 47 1006.9
20260508190024 20 160 0.0 12.9 0.00 0.00 0.00 45 1006.9
20260508184527 19 144 1.6 9.7 0.00 0.00 0.00 43 1006.9
20260508183020 20 179 1.6 20.9 0.00 0.00 0.00 42 1007.1
20260508181518 20 166 3.2 16.1 0.00 0.00 0.00 45 1007.4
20260508180016 19 177 0.0 19.3 0.00 0.00 0.00 47 1007.7
20260508174514 20 150 4.8 20.9 0.00 0.00 0.00 43 1008.0
20260508173009 18 169 0.0 6.4 0.00 0.00 0.00 47 1008.2
20260508171511 18 147 1.6 14.5 0.00 0.00 0.00 50 1008.5
20260508170004 18 257 0.0 16.1 0.00 0.00 0.00 50 1008.7
20260508164600 18 235 0.0 9.7 0.00 0.00 0.00 50 1009.2
20260508163058 18 169 0.0 19.3 0.00 0.00 0.00 52 1009.3
20260508161556 17 152 1.6 22.5 0.00 0.00 0.00 52 1009.6
20260508160100 17 230 1.6 20.9 0.00 0.00 0.00 52 1009.8
20260508154552 17 139 0.0 6.4 0.00 0.00 0.00 56 1009.8
20260508153048 16 266 3.2 17.7 0.00 0.00 0.00 54 1009.8
20260508151548 16 206 1.6 20.9 0.00 0.00 0.00 53 1010.0
20260508144546 15 147 0.0 16.1 0.00 0.00 0.00 55 1010.4
20260508143046 15 174 0.0 12.9 0.00 0.00 0.00 54 1010.5
20260508141535 14 174 1.6 16.1 0.00 0.00 0.00 53 1010.6
20260508140039 14 195 1.6 12.9 0.00 0.00 0.00 55 1010.7
20260508134531 13 274 0.0 17.7 0.00 0.00 0.00 55 1010.7
20260508133025 13 166 1.6 14.5 0.00 0.00 0.00 57 1010.6
20260508131523 12 191 1.6 11.3 0.00 0.00 0.00 57 1010.7
20260508130025 12 154 0.0 14.5 0.00 0.00 0.00 57 1010.7
20260508124517 11 208 0.0 12.9 0.00 0.00 0.00 58 1010.7
20260508123013 11 295 0.0 6.4 0.00 0.00 0.00 58 1010.6
20260508121517 11 291 1.6 11.3 0.00 0.00 0.00 59 1010.5
20260508120014 10 175 0.0 11.3 0.00 0.00 0.00 60 1010.5
20260508114524 10 144 0.0 3.2 0.00 0.00 0.00 60 1010.5
20260508113008 10 145 0.0 0.0 0.00 0.00 0.00 60 1010.4
20260508111508 10 136 0.0 1.6 0.00 0.00 0.00 59 1010.2
20260508110006 10 295 0.0 1.6 0.00 0.00 0.00 59 1010.1
20260508104506 10 168 0.0 4.8 0.00 0.00 0.00 59 1009.9
20260508103004 10 257 0.0 3.2 0.00 0.00 0.00 59 1010.1
20260508101503 10 257 0.0 0.0 0.00 0.00 0.00 58 1010.1
20260508100002 10 191 0.0 0.0 0.00 0.00 0.00 58 1010.1
20260508094501 10 131 0.0 1.6 0.00 0.00 0.00 59 1010.1
20260508093059 10 143 0.0 3.2 0.00 0.00 0.00 60 1010.2
20260508091557 10 129 0.0 6.4 0.00 0.00 0.00 61 1010.2
20260508090059 9 228 0.0 6.4 0.00 0.00 0.00 62 1010.1
20260508084552 9 147 0.0 0.0 0.00 0.00 0.00 64 1010.2
20260508083052 9 183 0.0 0.0 0.00 0.00 0.00 64 1010.2
20260508081555 8 180 0.0 0.0 0.00 0.00 0.00 64 1010.1
20260508080057 8 181 0.0 0.0 0.00 0.00 0.00 64 1010.1
20260508074550 8 195 0.0 0.0 0.00 0.00 0.00 64 1010.1
20260508073047 8 197 0.0 1.6 0.00 0.00 0.00 65 1010.2
20260508071546 8 148 0.0 3.2 0.00 0.00 0.00 64 1010.1
20260508070045 8 224 0.0 0.0 0.00 0.00 0.00 65 1010.3
20260508064600 8 163 0.0 1.6 0.00 0.00 0.00 66 1010.3
20260508063041 8 157 0.0 0.0 0.00 0.00 0.00 67 1010.4
20260508061545 8 163 0.0 0.0 0.00 0.00 0.00 67 1010.7
20260508060040 8 162 0.0 0.0 0.00 0.00 0.00 66 1010.9
20260508054603 8 160 0.0 0.0 0.00 0.00 0.00 66 1010.9
20260508053038 8 159 0.0 0.0 0.00 0.00 0.00 65 1010.9
20260508051535 8 159 0.0 0.0 0.00 0.00 0.00 65 1010.8
20260508050038 8 158 0.0 0.0 0.00 0.00 0.00 65 1010.8
20260508044534 8 159 0.0 0.0 0.00 0.00 0.00 65 1010.8